Regional Weather Roundup
Issued by NWS

Home | Current Version | Previous Version | Text Only | Print | Product List | Glossary On
Versions: 1 2 3 4 5 6 7 8 9 10 11 12 13 14 15 16 17 18 19 20 21 22 23 24 25 26 27 28 29 30 31 32 33 34 35 36 37 38 39 40 41 42 43 44 45 46 47 48 49 50
000
ASUS43 KDTX 010710
RWRMI
MICHIGAN HOURLY REGIONAL WEATHER ROUNDUP
NATIONAL WEATHER SERVICE DETROIT/PONTIAC MI
300 AM EDT WED JUN 01 2016

NOTE: "FAIR" INDICATES FEW OR NO CLOUDS BELOW 12,000 FEET WITH NO
SIGNIFICANT WEATHER AND/OR OBSTRUCTION TO VISIBILITY.

MIZ047>049-052>055-059>063-066>070-074>076-081>083-010800-
SOUTHEAST LOWER MICHIGAN

CITY           SKY/WX    TMP DP  RH WIND       PRES   REMARKS
ADRIAN         CLEAR     59  51  75 E6        30.04F
ALMA           CLOUDY    60  47  63 NE3       30.06F
ANN ARBOR      MOCLDY    52  47  83 CALM      30.05F
BAD AXE        CLEAR     53  47  82 E3        30.10S
CARO           PTCLDY    55  47  75 E8        30.07S
DETROIT CITY   CLOUDY    56  47  71 N5        30.07S
DETROIT        MOCLDY    60  46  59 NE5       30.06F
FLINT          PTCLDY    61  46  57 E3        30.07F
GROSSE ILE     CLEAR     59  54  82 NE5       30.04F
HILLSDALE      PTCLDY    62  47  58 E9        30.04S
HOWELL         CLOUDY    60  43  53 E3        30.05F

CITY           SKY/WX    TMP DP  RH WIND       PRES   REMARKS
JACKSON        MOCLDY    63  49  60 E10       30.04F
LAMBERTVILLE   MOCLDY    62  54  76 CALM      30.03F
LANSING        CLOUDY    64  52  64 E6        30.05F
LAPEER         FAIR      56  47  72 E8        30.08S
MASON          MOCLDY    63  51  65 SE6       30.05F
MONROE         PTCLDY    58  52  79 NW6       30.04F
MT. CLEMENS    CLOUDY    51  48  90 N8        30.06S
PONTIAC        CLOUDY    59  47  64 E7        30.06F
PORT HOPE        N/A     59  53  80 E13       30.09R
PORT HURON     CLOUDY    50  50 100 CALM      30.09S
TRI CITIES     CLOUDY    60  47  61 CALM      30.08S
MIDLAND        FAIR      56  50  80 CALM      30.07S
TROY           CLOUDY    58  47  66 NE5       30.08F
SAGINAW HB     CLOUDY    57  46  67 CALM      30.06F
$$
MIZ043>046-050>051-056>058-064>065-071>073-077>080-010800-
SOUTHWEST LOWER MICHIGAN

CITY           SKY/WX    TMP DP  RH WIND       PRES   REMARKS
BENTON HARBOR  CLOUDY    70  52  52 SE13      29.96S
BIG RAPIDS     CLOUDY    60  49  68 SE5       30.03F
COLDWATER      MOCLDY    65  51  62 SE3       30.02R
FREMONT        MOCLDY    64  53  69 E6        29.99F
HOLLAND        CLOUDY    70  53  54 SE10      29.98F
GRAND RAPIDS   CLOUDY    68  55  63 E7        30.01F
IONIA          FAIR      64  55  71 E6        30.03S
KALAMAZOO      CLOUDY    69  51  52 SE3       30.02R
LUDINGTON      CLOUDY    65  52  64 SE13G18   29.97S
MARSHALL       PTCLDY    66  50  57 E5        30.02S
MOUNT PLEASANT CLOUDY    55  51  85 CALM      30.06F
MUSKEGON       CLOUDY    69  54  58 E3        29.98S
SOUTH HAVEN    CLOUDY    68  53  59 SE9G16    29.97S
$$
MIZ016>042-010800-
NORTHERN LOWER MICHIGAN

CITY           SKY/WX    TMP DP  RH WIND       PRES   REMARKS
ALPENA         CLEAR     48  45  89 CALM      30.11R
BEAVER ISLAND  MOCLDY    58  46  62 E12       30.00F
BELLAIRE       CLOUDY    62  41  46 SE6       30.03R
CADILLAC       CLOUDY    57  44  63 E10       30.04F
CHARLEVOIX     CLOUDY    62  42  48 SE8       30.04S
FRANKFORT      CLOUDY    66  51  57 SE7       29.98F
GAYLORD        CLOUDY    56  44  64 SE12      30.07F
GRAYLING       CLOUDY    51  44  76 E5        30.08S
HARBOR SPRINGS CLOUDY    58  45  60 E12       30.04S
HOUGHTON LAKE  CLOUDY    53  45  74 E7        30.08S
MANISTEE       CLOUDY    63  48  59 E9        29.99F
OSCODA         CLEAR     52  47  82 CALM      30.10S
PELLSTON       CLOUDY    58  44  60 SE8       30.05F
ROGERS CITY    MOCLDY    55  45  67 SE7       30.10S
TRAVERSE CITY  PTCLDY    63  44  50 SE7       30.00F
$$
MIZ007>008-015-010800-
EASTERN UPPER MICHIGAN

CITY           SKY/WX    TMP DP  RH WIND       PRES   REMARKS
KINROSS          N/A     55  46  71 E10       30.07S
MACKINAC ISLAN CLOUDY    60  44  55 SE13G21   30.05S
NEWBERRY       MOCLDY    59  43  54 SE13      30.02S
S. S. MARIE    CLOUDY    54  48  80 E5        30.08S
MUNISING         N/A     61  47  59 S9G16     29.94F
$$
MIZ004>006-011>014-085-010800-
CENTRAL UPPER MICHIGAN

CITY           SKY/WX    TMP DP  RH WIND       PRES   REMARKS
MANISTIQUE     RAIN      57  49  75 E13G20    29.99F
ESCANABA       CLOUDY    61  52  72 SE12      29.94S
MENOMINEE      CLOUDY    58  54  86 CALM      29.95S
SAWYER-GWINN   CLOUDY    60  49  66 S10G18    29.94S
$$
MIZ001>003-009>011-084-010800-
WESTERN UPPER MICHIGAN

CITY           SKY/WX    TMP DP  RH WIND       PRES   REMARKS
IRON MOUNTAIN  CLOUDY    58  51  78 CALM      29.93S
HOUGHTON       LGT RAIN  49  46  90 E10       29.88F
COPPER HARBOR    N/A     54  49  83 S8        29.91F
IRONWOOD       CLOUDY    61  59  94 S6        29.83S
$$

ABBREVIATIONS USED IN REMARKS
   TC - TEMPERATURE IN CELSIUS
  WCI - WIND CHILL INDEX
   HX - HEAT INDEX
  VSB - VISIBILITY





USA.gov is the U.S. government's official web portal to all federal, state and local government web resources and services.